When you browse on this site, cookies collect data to enhance your experience and personalize the content and advertising you see.
Visit our Privacy Policy to learn more. By continuing to use the site, you agree to this use of cookies and data.
  • In United Kingdom
  • List of Countries
  • For 7 days
  • Water Temperature
  • Satellite Maps
  • Weather Map
  • Weather Widgets
  • user-avatar
    Login

    Hourly Weather Dikhil

    Today, 20 March, Wednesday

    Time Temperature Precipitation Wind Pressure Humidity
    00:00 +27°C° 0 mm 6 mps 717 mmHg 63%
    01:00 +26°C° 0 mm 6 mps 717 mmHg 65%
    02:00 +26°C° 0 mm 5 mps 716 mmHg 66%
    03:00 +26°C° 0 mm 5 mps 716 mmHg 69%
    04:00 +25°C° 0 mm 5 mps 716 mmHg 72%
    05:00 +25°C° 0 mm 5 mps 716 mmHg 74%
    06:00 +25°C° 0 mm 4 mps 716 mmHg 77%
    07:00 +26°C° 0 mm 5 mps 717 mmHg 68%
    08:00 +27°C° 0 mm 6 mps 717 mmHg 59%
    09:00 +29°C° 0 mm 6 mps 718 mmHg 47%
    10:00 +32°C° 0 mm 6 mps 718 mmHg 41%
    11:00 +34°C° 0 mm 7 mps 718 mmHg 35%
    12:00 +35°C° 0 mm 7 mps 717 mmHg 30%
    13:00 +36°C° 0 mm 7 mps 717 mmHg 29%
    14:00 +36°C° 0 mm 7 mps 716 mmHg 29%
    15:00 +38°C° 0 mm 7 mps 715 mmHg 29%
    16:00 +36°C° 0 mm 7 mps 715 mmHg 34%
    17:00 +34°C° 0 mm 7 mps 715 mmHg 38%
    18:00 +33°C° 0 mm 7 mps 715 mmHg 43%
    19:00 +32°C° 0 mm 7 mps 715 mmHg 48%
    20:00 +30°C° 0 mm 6 mps 715 mmHg 53%
    21:00 +29°C° 0 mm 6 mps 716 mmHg 58%
    22:00 +28°C° 0 mm 5 mps 716 mmHg 61%
    23:00 +28°C° 0 mm 5 mps 716 mmHg 64%

    Tomorrow, 21 March, Thursday

    Time Temperature Precipitation Wind Pressure Humidity
    00:00 +27°C° 0 mm 5 mps 716 mmHg 66%
    01:00 +27°C° 0 mm 4 mps 715 mmHg 69%
    02:00 +27°C° 0 mm 4 mps 715 mmHg 71%
    03:00 +26°C° 0 mm 3 mps 715 mmHg 74%
    04:00 +26°C° 0 mm 4 mps 715 mmHg 75%
    05:00 +25°C° 0 mm 4 mps 715 mmHg 77%
    06:00 +25°C° 0 mm 4 mps 716 mmHg 79%
    07:00 +27°C° 0 mm 5 mps 716 mmHg 70%
    08:00 +28°C° 0 mm 6 mps 717 mmHg 62%
    09:00 +29°C° 0 mm 6 mps 718 mmHg 53%
    10:00 +32°C° 0 mm 7 mps 718 mmHg 46%
    11:00 +34°C° 0 mm 7 mps 718 mmHg 40%
    12:00 +37°C° 0 mm 8 mps 718 mmHg 33%
    13:00 +37°C° 0 mm 8 mps 717 mmHg 33%
    14:00 +37°C° 0 mm 8 mps 716 mmHg 33%
    15:00 +38°C° 0 mm 8 mps 715 mmHg 32%
    16:00 +35°C° 0 mm 8 mps 715 mmHg 38%
    17:00 +34°C° 0 mm 8 mps 715 mmHg 43%
    18:00 +33°C° 0 mm 8 mps 715 mmHg 49%
    19:00 +32°C° 0 mm 7 mps 715 mmHg 54%
    20:00 +30°C° 0 mm 7 mps 716 mmHg 60%
    21:00 +28°C° 0 mm 6 mps 716 mmHg 66%
    22:00 +28°C° 0 mm 6 mps 716 mmHg 68%
    23:00 +28°C° 0 mm 5 mps 716 mmHg 71%

    Day after tomorrow, 22 March, Friday

    Time Temperature Precipitation Wind Pressure Humidity
    00:00 +27°C° 0 mm 5 mps 716 mmHg 73%
    01:00 +27°C° 0 mm 5 mps 716 mmHg 74%
    02:00 +27°C° 0 mm 5 mps 715 mmHg 75%
    03:00 +26°C° 0 mm 5 mps 715 mmHg 76%
    04:00 +26°C° 0 mm 4 mps 715 mmHg 77%
    05:00 +26°C° 0 mm 4 mps 716 mmHg 78%
    06:00 +26°C° 0 mm 4 mps 716 mmHg 78%
    07:00 +27°C° 0 mm 5 mps 717 mmHg 71%
    08:00 +28°C° 0 mm 5 mps 718 mmHg 64%
    09:00 +30°C° 0 mm 6 mps 718 mmHg 57%
    10:00 +32°C° 0 mm 6 mps 718 mmHg 50%
    11:00 +34°C° 0 mm 6 mps 718 mmHg 43%
    12:00 +36°C° 0 mm 6 mps 718 mmHg 37%
    13:00 +36°C° 0 mm 6 mps 717 mmHg 35%
    14:00 +38°C° 0 mm 6 mps 716 mmHg 33%
    15:00 +39°C° 0 mm 7 mps 715 mmHg 31%
    16:00 +36°C° 0 mm 7 mps 715 mmHg 35%
    17:00 +35°C° 0 mm 7 mps 715 mmHg 40%
    18:00 +33°C° 0 mm 8 mps 714 mmHg 44%
    19:00 +32°C° 0 mm 7 mps 715 mmHg 51%
    20:00 +30°C° 0 mm 6 mps 716 mmHg 57%
    21:00 +29°C° 0 mm 6 mps 716 mmHg 64%
    22:00 +29°C° 0 mm 5 mps 716 mmHg 66%
    23:00 +28°C° 0 mm 5 mps 716 mmHg 68%

    23 March, Saturday

    Time Temperature Precipitation Wind Pressure Humidity
    00:00 +28°C° 0 mm 5 mps 716 mmHg 70%
    01:00 +27°C° 0 mm 5 mps 716 mmHg 72%
    02:00 +27°C° 0 mm 4 mps 715 mmHg 73%
    03:00 +27°C° 0 mm 4 mps 715 mmHg 74%
    04:00 +26°C° 0 mm 4 mps 715 mmHg 75%
    05:00 +26°C° 0 mm 4 mps 716 mmHg 77%
    06:00 +26°C° 0 mm 4 mps 716 mmHg 78%
    07:00 +27°C° 0 mm 5 mps 717 mmHg 71%
    08:00 +28°C° 0 mm 6 mps 717 mmHg 64%
    09:00 +30°C° 0 mm 7 mps 718 mmHg 57%
    10:00 +32°C° 0 mm 7 mps 718 mmHg 50%
    11:00 +34°C° 0 mm 6 mps 717 mmHg 43%
    12:00 +36°C° 0 mm 6 mps 717 mmHg 35%
    13:00 +36°C° 0 mm 7 mps 716 mmHg 35%
    14:00 +38°C° 0 mm 7 mps 716 mmHg 34%
    15:00 +38°C° 0 mm 7 mps 715 mmHg 33%
    16:00 +36°C° 0 mm 7 mps 715 mmHg 39%
    17:00 +34°C° 0 mm 7 mps 715 mmHg 45%
    18:00 +33°C° 0 mm 7 mps 714 mmHg 51%
    19:00 +32°C° 0 mm 7 mps 715 mmHg 56%
    20:00 +30°C° 0 mm 6 mps 715 mmHg 62%
    21:00 +29°C° 0 mm 6 mps 716 mmHg 68%
    22:00 +28°C° 0 mm 6 mps 716 mmHg 70%
    23:00 +28°C° 0 mm 5 mps 716 mmHg 72%

    24 March, Sunday

    Time Temperature Precipitation Wind Pressure Humidity
    00:00 +28°C° 0 mm 5 mps 716 mmHg 74%
    01:00 +27°C° 0 mm 5 mps 715 mmHg 75%
    02:00 +27°C° 0 mm 4 mps 715 mmHg 76%
    03:00 +27°C° 0 mm 4 mps 714 mmHg 77%
    04:00 +26°C° 0 mm 4 mps 714 mmHg 78%
    05:00 +26°C° 0 mm 3 mps 715 mmHg 78%
    06:00 +26°C° 0 mm 3 mps 715 mmHg 79%
    07:00 +27°C° 0 mm 4 mps 716 mmHg 73%
    08:00 +28°C° 0 mm 4 mps 716 mmHg 67%
    09:00 +29°C° 0 mm 5 mps 717 mmHg 60%
    10:00 +32°C° 0 mm 5 mps 716 mmHg 54%
    11:00 +34°C° 0 mm 5 mps 716 mmHg 47%
    12:00 +35°C° 0 mm 5 mps 715 mmHg 40%
    13:00 +36°C° 0 mm 5 mps 715 mmHg 39%
    14:00 +37°C° 0 mm 5 mps 714 mmHg 38%
    15:00 +39°C° 0 mm 6 mps 713 mmHg 36%
    16:00 +36°C° 0 mm 6 mps 713 mmHg 42%
    17:00 +35°C° 0 mm 7 mps 713 mmHg 47%
    18:00 +33°C° 0 mm 8 mps 713 mmHg 53%
    19:00 +32°C° 0 mm 7 mps 713 mmHg 57%
    20:00 +30°C° 0 mm 6 mps 714 mmHg 62%
    21:00 +29°C° 0 mm 5 mps 714 mmHg 67%
    22:00 +29°C° 0 mm 5 mps 714 mmHg 69%
    23:00 +28°C° 0 mm 5 mps 714 mmHg 70%

    25 March, Monday

    Time Temperature Precipitation Wind Pressure Humidity
    00:00 +28°C° 0 mm 4 mps 714 mmHg 72%
    01:00 +28°C° 0 mm 4 mps 713 mmHg 73%
    02:00 +27°C° 0 mm 4 mps 713 mmHg 75%
    03:00 +27°C° 0 mm 4 mps 713 mmHg 76%
    04:00 +27°C° 0 mm 4 mps 713 mmHg 77%
    05:00 +26°C° 0 mm 4 mps 714 mmHg 78%
    06:00 +26°C° 0 mm 5 mps 714 mmHg 79%
    07:00 +27°C° 0 mm 5 mps 715 mmHg 73%
    08:00 +29°C° 0 mm 6 mps 715 mmHg 66%
    09:00 +30°C° 0 mm 6 mps 716 mmHg 60%
    10:00 +33°C° 0 mm 6 mps 715 mmHg 54%
    11:00 +34°C° 0 mm 6 mps 715 mmHg 47%
    12:00 +36°C° 0 mm 6 mps 715 mmHg 41%
    13:00 +38°C° 0 mm 6 mps 714 mmHg 40%
    14:00 +38°C° 0 mm 7 mps 714 mmHg 38%
    15:00 +39°C° 0 mm 7 mps 713 mmHg 37%
    16:00 +36°C° 0 mm 7 mps 713 mmHg 43%
    17:00 +35°C° 0 mm 8 mps 713 mmHg 50%
    18:00 +33°C° 0 mm 9 mps 713 mmHg 56%
    19:00 +32°C° 0 mm 8 mps 713 mmHg 61%
    20:00 +30°C° 0 mm 7 mps 714 mmHg 65%
    21:00 +29°C° 0 mm 6 mps 714 mmHg 70%
    22:00 +29°C° 0 mm 6 mps 714 mmHg 71%
    23:00 +29°C° 0 mm 6 mps 714 mmHg 73%
    Show more